Weather History for KCXY - June, 2013

Change the Weather History Date:

Thursday, June 20, 2013

  Actual Average (KMDT) Record (KMDT)
Temperature  
Mean Temperature 68 °F 73 °F  
Max Temperature 81 °F 83 °F 98 °F (1931)
Min Temperature 55 °F 64 °F 48 °F (1926)
Degree Days  
Heating Degree Days 0 0  
Month to date heating degree days 17  
Since 1 June heating degree days 17  
Since 1 July heating degree days 5268  
Cooling Degree Days 2 8  
Month to date cooling degree days 120  
Year to date cooling degree days 185  
Since 1 June cooling degree days 120  
Growing Degree Days 18 (Base 50)    
Moisture  
Dew Point 56 °F    
Average Humidity 68    
Maximum Humidity 93    
Minimum Humidity 47    
Precipitation  
Precipitation 0.00 in 0.11 in 2.27 in (1987)
Month to date precipitation 2.39  
Year to date precipitation 17.92  
Sea Level Pressure  
Sea Level Pressure 30.23 in    
Wind  
Wind Speed 4 mph (South)    
Max Wind Speed 14 mph    
Max Gust Speed -    
Visibility 10 miles    
Events      
T = Trace of Precipitation, MM = Missing Value Source: NWS Daily Summary

Daily Weather History Graph

Daily Weather History Graph

Search for Another Location

Airport or City:

Trip Planner

Search our weather history database for the weather conditions in past years. The results will help you decide how hot, cold, wet, or windy it might be!

Date:

Astronomy

Jun. 20, 2013 Rise Set
Actual Time 5:37 AM EDT 8:40 PM EDT
Civil Twilight 5:04 AM EDT 9:13 PM EDT
Nautical Twilight 4:22 AM EDT 9:55 PM EDT
Astronomical Twilight 3:33 AM EDT 10:44 PM EDT
Moon 5:40 PM EDT (6/20) 3:02 AM EDT (6/20)
Length of Visible Light 16h 08m
Length of Day
15h 02m
Waxing Gibbous, 89% of the Moon is Illuminated
Jun 20
Waxing Gibbous
Jun 23
Full
Jun 30
Last Quarter
Jul 8
New
Jul 15
First Quarter

Hourly Weather History & Observations

Time (EDT) Temp. Heat Index Dew Point Humidity Pressure Visibility Wind Dir Wind Speed Gust Speed Precip Events Conditions
12:56 AM 57.0 °F - 51.1 °F 81% 30.17 in 10.0 mi WSW 3.5 mph - N/A   Clear
1:56 AM 55.9 °F - 52.0 °F 87% 30.19 in 10.0 mi West 3.5 mph - N/A   Clear
2:56 AM 55.0 °F - 51.1 °F 86% 30.19 in 10.0 mi Calm Calm - N/A   Clear
3:56 AM 55.9 °F - 53.1 °F 90% 30.19 in 10.0 mi Calm Calm - N/A   Clear
4:56 AM 55.9 °F - 53.1 °F 90% 30.20 in 10.0 mi Calm Calm - N/A   Clear
5:56 AM 55.0 °F - 53.1 °F 93% 30.22 in 10.0 mi Calm Calm - N/A   Clear
6:24 AM 57.2 °F - 53.6 °F 88% 30.23 in 9.0 mi Calm Calm - N/A   Mostly Cloudy
6:56 AM 61.0 °F - 54.0 °F 78% 30.24 in 10.0 mi Calm Calm - N/A   Mostly Cloudy
7:07 AM 60.8 °F - 53.6 °F 77% 30.24 in 10.0 mi Calm Calm - N/A   Scattered Clouds
7:56 AM 63.0 °F - 55.9 °F 78% 30.25 in 10.0 mi East 3.5 mph - N/A   Partly Cloudy
8:56 AM 66.0 °F - 57.9 °F 75% 30.26 in 10.0 mi East 3.5 mph - N/A   Clear
9:56 AM 70.0 °F - 60.1 °F 71% 30.26 in 10.0 mi Calm Calm - N/A   Clear
10:56 AM 73.0 °F - 62.1 °F 68% 30.26 in 10.0 mi ENE 4.6 mph - N/A   Scattered Clouds
11:56 AM 75.0 °F - 60.1 °F 60% 30.26 in 10.0 mi SW 8.1 mph - N/A   Scattered Clouds
12:56 PM 77.0 °F - 59.0 °F 54% 30.25 in 10.0 mi SSW 9.2 mph - N/A   Mostly Cloudy
1:56 PM 78.1 °F - 60.1 °F 54% 30.23 in 10.0 mi SSW 9.2 mph - N/A   Mostly Cloudy
2:56 PM 79.0 °F - 57.0 °F 47% 30.22 in 10.0 mi SSW 13.8 mph - N/A   Mostly Cloudy
3:56 PM 79.0 °F - 57.0 °F 47% 30.22 in 10.0 mi South 9.2 mph - N/A   Scattered Clouds
4:56 PM 80.1 °F 80.9 °F 60.1 °F 50% 30.21 in 10.0 mi SSE 9.2 mph - N/A   Mostly Cloudy
5:56 PM 79.0 °F - 59.0 °F 50% 30.21 in 10.0 mi SSW 10.4 mph - N/A   Mostly Cloudy
6:56 PM 78.1 °F - 59.0 °F 52% 30.22 in 10.0 mi South 9.2 mph - N/A   Clear
7:56 PM 75.9 °F - 57.9 °F 54% 30.23 in 10.0 mi South 5.8 mph - N/A   Partly Cloudy
8:56 PM 73.0 °F - 57.0 °F 57% 30.22 in 10.0 mi South 8.1 mph - N/A   Clear
9:56 PM 72.0 °F - 55.0 °F 55% 30.24 in 10.0 mi South 8.1 mph - N/A   Clear
10:56 PM 71.1 °F - 55.0 °F 57% 30.25 in 10.0 mi South 5.8 mph - N/A   Mostly Cloudy
11:56 PM 71.1 °F - 55.0 °F 57% 30.25 in 10.0 mi Variable 3.5 mph - N/A   Clear